Location: Maccacari
(45.1333°N, 11.1333°E)
Time: 08:36:49
(UTC+00:00)

MetOp-B - Pass Details

Date: 18 September 2020
Orbit: 819 x 821 km, 98.7° (Epoch: 30 October)

Event Time Altitude Azimuth Distance (km) Brightness Sun altitude
Exits shadow 19:41:01 52° 67° (ENE) 1,017 4.3 -24.5°
Drops below altitude 10° 19:46:08 10° 355° (N) 2,427 7.0 -25.3°
Sets 19:48:32 0° 351° (N) 3,363 7.9 -25.7°
